Ankeny Regional Airport
Sunday 2:55 PM
Temperature70° (70°/55°)
Dew Point52°
Relative Humidity53
%
Visibility10
mi
Pressure1024.4
mb
Wind DirectionS
190°
Wind Speed8
mph
Precipitation Today0.00"

Last 30 Observations

Time PresWx Temp DP Feels RH% Vsby Pressure Ceiling Direction Speed 1h Precip
2:35 PM 70° 52° 53
%
10
mi
1024.7
mb
7,500
ft
S
170°
9
mph
(G15)
0.00"
2:15 PM 70° 52° 53
%
10
mi
1025.1
mb
8,500
ft
S
180°
6
mph
0.00"
1:55 PM 70° 52° 53
%
10
mi
1025.4
mb
8,500
ft
S
180°
11
mph
0.00"
1:35 PM 70° 52° 53
%
10
mi
1025.4
mb
S
190°
9
mph
0.00"
1:15 PM 70° 52° 53
%
10
mi
1025.7
mb
9,500
ft
S
190°
10
mph
0.00"
12:55 PM 68° 50° 53
%
10
mi
1026.1
mb
S
170°
9
mph
0.00"
12:35 PM 68° 50° 53
%
10
mi
1026.1
mb
SSE
160°
10
mph
0.00"
12:15 PM 68° 48° 49
%
10
mi
1026.1
mb
7,000
ft
SSE
160°
8
mph
(G14)
0.00"
11:55 AM 68° 50° 53
%
10
mi
1026.1
mb
7,000
ft
S
170°
11
mph
0.00"
11:35 AM 66° 50° 56
%
10
mi
1026.4
mb
7,000
ft
SSE
150°
8
mph
0.00"
11:15 AM 66° 48° 52
%
10
mi
1026.4
mb
7,000
ft
SSE
160°
8
mph
0.00"
10:55 AM 66° 50° 56
%
10
mi
1026.4
mb
SSE
150°
11
mph
0.00"
10:35 AM 66° 48° 52
%
10
mi
1026.8
mb
7,000
ft
SE
140°
11
mph
0.00"
10:15 AM 64° 48° 56
%
10
mi
1026.8
mb
7,000
ft
SE
140°
8
mph
0.00"
9:55 AM 64° 48° 56
%
10
mi
1026.8
mb
7,000
ft
SE
140°
8
mph
0.00"
9:35 AM 63° 50° 63
%
10
mi
1026.8
mb
7,000
ft
SSE
150°
6
mph
0.00"
9:15 AM 63° 50° 63
%
10
mi
1026.8
mb
7,000
ft
SE
130°
7
mph
0.00"
8:55 AM 63° 50° 63
%
10
mi
1026.8
mb
7,000
ft
SSE
150°
7
mph
0.00"
8:35 AM 61° 50° 68
%
10
mi
1026.4
mb
7,000
ft
SE
140°
7
mph
0.00"
8:15 AM 61° 50° 68
%
10
mi
1026.8
mb
7,000
ft
SSE
150°
3
mph
0.00"
7:55 AM 61° 48° 63
%
10
mi
1026.8
mb
7,000
ft
SE
140°
6
mph
0.00"
7:35 AM 61° 50° 68
%
10
mi
1026.8
mb
7,000
ft
SE
140°
5
mph
0.00"
7:15 AM 59° 50° 72
%
10
mi
1026.4
mb
7,000
ft
Calm 0.00"
6:55 AM 59° 50° 72
%
10
mi
1026.1
mb
7,000
ft
Calm 0.00"
6:35 AM 59° 50° 72
%
10
mi
1025.7
mb
7,000
ft
Calm 0.00"
6:15 AM 57° 50° 77
%
10
mi
1025.1
mb
9,500
ft
ESE
110°
7
mph
0.00"
5:55 AM 57° 50° 77
%
10
mi
1025.1
mb
9,000
ft
Calm 0.00"
5:35 AM BR 55° 52° 88
%
3
mi
1024.7
mb
12,000
ft
Calm 0.00"
5:15 AM 57° 54° 88
%
10
mi
1024.7
mb
Calm 0.00"
4:55 AM 55° 55° 100
%
9
mi
1024.4
mb
12,000
ft
Calm 0.00"